Location: Huntsville
(41.2590°N, 111.7678°W)
Time: 16:27:41
(UTC+00:00)

Courier 1B Rocket - Pass Details

Date: 14 June 2021
Orbit: 920 x 1202 km, 28.2° (Epoch: 22 July)

Event Time Altitude Azimuth Distance (km) Brightness Sun altitude
Rises 07:42:12 0° 252° (WSW) 3,548 - -25.4°
Reaches altitude 10° 07:45:22 10° 238° (WSW) 2,604 - -25.3°
Maximum altitude 07:49:59 22° 189° (S) 1,908 - -25.2°
Drops below altitude 10° 07:54:41 10° 141° (SE) 2,657 - -25.2°
Sets 07:57:58 0° 127° (SE) 3,639 - -25.1°
